Theta_e
351 352 350 350 349 350 349 349 349 351 352 352 351 352 353 355 357 357 359 359 358 357 356 356 357 356 359 356 357 355 357 354 353 353 353 353 352 354 357 355 353 351
350 352 354 351 351 353 351 350 350 351 352 352 352 353 354 355 357 358 357 358 358 358 356 357 358 356 356 356 355 355 355 354 353 360 354 352 351 353 354 353 353 351
351 351 351 349 350 351 352 351 351 351 352 353 354 354 355 357 356 356 357 357 357 358 357 357 358 357 356 355 355 355 356 352 353 352 353 351 351 352 352 354 352 352
352 351 352 350 351 351 352 351 351 351 352 352 353 356 356 357 356 355 355 362 357 357 357 358 359 358 357 356 355 354 354 353 352 350 351 353 354 354 353 352 356 354
351 351 352 351 351 352 352 351 352 352 351 352 353 355 357 356 355 354 354 355 356 356 357 358 358 358 358 357 355 354 354 353 352 351 350 350 350 354 355 355 352 351
351 352 352 352 351 351 351 351 351 352 352 352 352 354 355 355 356 355 354 354 356 357 357 358 358 358 358 357 356 354 355 355 354 352 352 351 351 353 359 356 353 350
350 350 351 352 351 351 351 351 350 352 352 353 353 352 353 353 353 355 355 354 355 356 357 358 358 357 358 358 357 355 354 354 352 352 353 353 351 352 354 354 352 350
351 350 351 351 350 350 351 350 350 351 351 351 351 352 352 353 352 353 356 355 355 355 356 357 358 357 358 358 357 355 355 356 355 353 352 352 349 350 351 353 351 348
351 350 350 350 350 349 349 349 349 349 351 350 350 350 351 352 352 352 354 355 355 355 355 356 357 357 357 357 357 356 355 355 355 353 352 352 351 351 352 351 349 350
349 349 349 349 349 349 348 349 349 348 349 349 350 349 349 350 351 352 352 354 355 354 354 354 355 356 356 356 357 356 355 354 353 353 352 352 352 352 352 352 352 350
349 349 349 349 349 349 349 349 349 348 347 347 348 347 348 348 349 351 351 351 354 354 353 353 353 354 354 355 356 356 356 355 354 353 352 352 352 352 358 353 352 352
349 349 349 348 349 349 349 349 349 349 347 347 347 346 346 347 347 348 351 350 352 353 353 353 353 352 353 354 354 355 355 356 355 354 353 352 352 353 353 354 353 352
348 348 349 349 349 349 348 348 348 348 348 347 347 347 345 345 345 346 349 350 351 352 352 353 352 352 352 352 352 353 353 354 354 353 353 352 352 352 353 353 354 353
347 349 348 348 350 348 347 346 345 344 345 346 347 346 346 345 344 345 345 349 350 351 352 353 352 351 351 351 351 351 352 352 352 352 352 351 351 352 352 352 352 353
346 346 346 346 348 346 346 345 345 343 342 342 343 345 346 345 345 344 344 345 347 350 351 352 352 351 351 351 350 350 350 350 351 351 351 350 350 350 351 351 352 352
347 348 347 346 344 343 344 345 346 346 345 343 341 341 342 344 343 342 342 343 344 346 348 350 352 352 353 344 348 352 350 350 350 350 350 350 350 349 349 349 350 351
346 347 347 346 345 345 344 344 345 346 346 344 343 342 341 341 344 341 341 341 342 344 344 346 349 352 344 336 336 340 352 349 348 348 348 349 349 348 347 348 348 349
348 348 347 347 347 346 346 345 345 345 345 345 344 344 343 342 342 342 342 340 340 341 343 345 346 345 335 333 334 333 342 351 349 348 348 346 346 346 346 347 346 347
349 349 348 347 347 346 346 346 345 345 345 344 344 345 344 342 341 341 342 342 340 338 339 343 345 339 332 330 331 331 332 342 350 349 348 347 347 346 346 346 346 346
345 347 348 348 348 348 348 348 347 346 346 347 348 348 345 343 342 341 342 343 343 340 339 339 341 340 330 328 327 328 329 333 347 349 348 348 347 347 348 347 347 346
343 343 345 346 348 350 350 347 345 345 346 347 348 347 346 346 345 343 342 343 344 347 345 344 344 334 328 325 323 323 326 330 340 345 347 347 348 348 347 347 347 347
341 342 343 342 341 342 341 341 343 345 344 345 349 348 348 348 347 346 346 346 346 346 346 345 346 326 327 325 321 321 324 334 336 339 342 345 347 348 348 348 348 347
338 339 341 342 338 338 341 341 343 346 346 347 346 347 348 349 347 348 348 347 347 346 346 345 346 330 321 321 319 318 324 334 335 337 339 341 343 345 347 348 348 348
335 335 335 339 341 337 336 338 340 344 347 350 346 344 345 347 349 348 349 347 347 347 347 346 346 337 318 316 315 316 328 332 333 335 336 338 340 342 343 344 347 355
329 331 333 335 335 338 337 336 337 340 343 345 347 347 346 346 347 349 350 349 349 349 352 349 347 342 319 314 313 313 327 333 333 333 334 334 336 337 338 340 342 350
325 329 330 330 331 333 336 337 339 338 339 342 344 345 346 348 348 349 348 350 351 350 351 350 348 348 339 315 312 312 318 340 337 336 337 337 337 337 338 338 339 340
Wind_Speed
6 5 6 5 5 6 6 6 5 5 5 5 6 5 5 5 3 4 4 4 3 3 3 3 3 3 2 2 3 3 3 3 3 2 2 2 2 1 2 1 1 1
7 6 4 5 4 4 5 6 6 6 6 5 6 5 4 3 3 4 4 4 3 3 3 3 3 3 3 3 3 3 3 3 4 2 2 2 2 1 2 1 1 1
6 6 6 6 6 6 6 5 5 6 6 6 5 5 5 4 4 4 4 4 4 4 4 4 3 3 4 3 3 3 3 3 4 2 2 3 2 1 2 1 1 1
7 7 7 6 6 6 5 5 5 5 4 5 6 6 5 5 4 5 4 5 5 5 4 4 5 4 4 4 3 3 3 3 3 2 3 1 2 2 2 0 0 1
9 7 6 6 5 5 5 6 6 6 6 6 5 5 5 5 5 5 5 5 5 5 4 5 5 5 5 4 4 4 3 4 2 2 2 3 2 1 2 1 1 2
6 6 6 6 6 6 6 6 6 7 6 6 7 6 6 6 5 6 6 6 6 6 6 5 5 5 5 5 5 5 4 4 3 3 3 3 3 2 2 1 1 2
8 6 7 6 6 6 7 7 6 6 7 6 5 5 5 6 6 6 6 7 7 7 7 6 6 6 5 5 5 5 4 4 3 3 3 3 2 3 2 2 2 3
9 7 6 5 6 6 7 7 7 6 6 5 6 6 5 6 6 5 5 6 7 7 7 7 7 6 6 5 6 6 5 4 4 4 4 4 3 3 3 2 2 3
8 7 7 7 7 6 7 7 7 6 5 6 6 6 5 6 6 6 5 5 6 6 7 6 7 6 6 6 6 6 7 6 5 5 5 5 4 5 4 3 3 3
8 8 8 8 9 8 8 7 7 6 6 6 6 5 6 6 6 6 5 6 6 6 6 6 6 6 5 6 7 7 7 7 6 6 6 6 6 5 5 4 5 4
10 9 9 10 10 8 9 8 7 6 6 7 6 6 6 5 5 5 6 6 7 7 7 6 6 6 6 6 6 6 7 7 6 6 6 6 6 6 6 5 5 5
9 8 10 10 10 10 10 9 8 7 7 6 6 7 6 6 7 6 7 7 7 7 7 8 7 7 7 7 7 6 6 6 6 6 6 6 6 6 6 5 5 6
7 7 7 9 9 9 8 7 7 7 8 8 7 7 7 7 7 7 6 7 7 7 7 8 8 8 7 7 7 6 7 6 6 6 6 6 5 6 6 6 6 6
2 1 2 4 5 5 6 6 5 6 6 6 5 7 8 8 8 8 7 6 7 7 8 7 8 7 7 7 7 7 7 7 7 7 7 6 6 6 6 6 6 6
6 6 8 9 6 3 4 5 4 4 4 4 5 7 7 8 7 7 6 7 7 8 8 7 8 8 7 7 8 8 7 8 8 8 8 7 7 6 6 6 6 6
3 3 3 2 6 8 6 4 5 4 4 3 3 3 4 5 6 6 7 8 8 7 7 7 7 7 9 14 12 9 8 8 7 8 8 8 8 7 6 6 7 6
6 5 5 6 5 3 8 9 6 5 4 4 4 4 4 3 4 6 7 7 8 7 7 7 7 7 13 14 14 15 10 8 8 8 7 8 8 7 8 7 6 6
1 2 4 5 5 6 5 5 10 7 5 5 5 5 5 4 4 5 5 5 6 6 7 8 8 11 14 14 15 16 14 10 8 8 7 7 7 8 8 7 7 7
0 2 2 3 4 5 5 4 5 9 7 3 4 3 3 5 6 5 5 4 4 5 6 7 7 11 14 15 15 16 17 14 8 8 8 8 8 8 8 8 7 7
6 1 5 6 7 6 5 4 3 5 4 1 1 2 3 4 5 5 4 4 4 4 4 4 6 9 13 15 15 16 16 13 9 9 8 8 8 8 8 8 8 8
5 5 5 4 2 0 2 2 2 2 1 2 2 2 3 3 4 4 4 4 3 2 2 3 4 4 9 12 14 15 15 10 6 6 6 6 7 7 8 9 8 8
6 6 6 6 6 6 7 6 5 4 4 5 4 4 4 3 4 3 3 3 3 3 3 4 2 3 2 6 11 13 12 7 7 8 8 8 8 7 7 7 7 7
4 5 6 6 7 7 6 6 6 5 3 0 3 1 2 2 2 2 2 3 3 3 4 4 4 4 5 3 4 7 6 5 6 6 7 8 10 9 8 7 7 7
6 6 7 6 4 4 5 5 5 4 4 3 2 3 5 6 5 4 2 2 2 4 4 5 5 6 9 8 8 10 9 6 6 7 8 8 9 9 8 8 9 13
8 8 8 6 5 4 2 3 3 3 3 3 3 2 3 4 6 5 5 3 2 4 6 7 5 4 5 6 8 11 9 5 6 6 7 8 7 8 7 7 9 11
7 7 7 7 7 6 4 3 2 1 2 2 2 3 3 2 4 5 6 5 4 3 4 5 5 5 2 7 8 9 9 4 4 5 7 7 6 6 6 6 7 7
Wind_Direction
183 185 190 190 193 189 179 184 189 188 194 188 192 208 208 211 190 183 193 187 191 190 192 189 194 198 191 183 187 179 188 206 211 181 187 189 230 233 301 334 357 345
185 183 190 195 198 197 190 188 188 190 195 192 197 198 210 196 200 186 190 195 193 201 197 193 196 195 189 181 178 181 197 190 224 182 172 188 224 206 260 255 270 277
178 181 185 191 197 199 194 194 191 194 190 198 194 191 197 196 194 197 196 193 196 203 203 201 196 196 190 187 178 190 195 198 218 218 186 213 212 219 247 239 264 268
186 185 186 190 192 195 191 183 195 196 189 185 200 198 194 195 188 193 201 201 196 204 204 198 200 195 192 188 178 194 205 208 218 181 208 238 228 206 245 196 251 300
188 187 185 184 187 187 178 184 190 189 190 198 198 197 196 198 190 195 197 206 202 208 198 200 201 198 191 185 182 195 203 218 215 184 215 251 255 229 247 201 266 301
198 189 184 182 184 181 184 189 191 185 193 192 201 195 202 200 198 196 198 201 205 207 204 202 198 200 188 187 186 200 201 210 218 189 215 234 259 255 260 230 228 284
198 193 191 186 184 190 187 191 192 191 192 197 187 201 198 202 205 204 199 202 203 204 204 202 202 200 193 185 187 200 209 211 213 203 216 232 228 268 259 252 249 254
196 193 190 186 190 195 197 194 195 197 195 187 195 208 196 207 206 209 203 202 203 206 204 203 202 202 197 188 191 197 208 202 212 212 219 236 216 246 253 232 236 251
193 191 187 190 195 196 201 198 200 201 195 196 202 206 204 207 208 204 202 201 208 207 205 204 203 204 200 195 199 199 203 209 207 202 212 224 226 232 240 234 236 243
196 193 191 196 202 203 201 201 198 198 195 204 205 204 205 212 209 204 197 198 204 208 207 208 206 211 208 205 202 199 204 211 210 206 210 218 219 222 227 223 227 236
199 196 195 199 207 209 211 206 204 196 194 203 203 211 211 206 212 204 197 197 203 205 205 208 209 207 213 218 219 209 206 209 212 211 214 217 220 221 221 215 218 221
201 201 202 202 205 212 215 214 209 207 202 201 201 211 214 210 207 205 200 200 204 205 203 207 206 203 207 213 217 219 220 221 220 218 219 220 224 227 227 221 218 221
196 204 210 210 208 209 213 212 214 214 210 210 202 209 212 216 215 210 211 204 206 202 204 204 205 205 205 209 214 216 218 220 227 229 229 227 229 228 228 226 227 228
255 279 260 240 222 208 198 199 208 210 217 219 209 212 214 216 217 213 213 207 208 205 208 204 206 208 207 208 211 213 215 222 222 226 228 231 233 233 232 230 227 230
17 15 352 340 313 238 194 199 199 210 218 218 218 218 218 219 216 215 211 212 213 210 210 208 207 213 209 206 208 214 214 223 224 225 227 231 232 232 232 233 234 234
183 162 174 269 295 295 276 221 201 212 213 217 220 227 240 226 217 213 211 210 213 215 213 210 214 217 218 212 208 207 210 219 223 224 225 227 229 232 234 228 231 231
206 192 178 190 197 254 291 290 249 210 221 229 231 228 224 236 230 223 217 214 212 211 210 212 218 222 221 216 216 217 214 215 219 225 223 224 226 227 233 232 232 229
132 171 207 219 197 195 212 262 299 286 240 226 232 235 236 227 227 226 232 229 221 215 214 213 218 223 220 216 216 219 218 219 221 227 223 221 225 227 232 232 233 231
262 178 227 246 242 221 208 191 234 273 283 293 277 278 280 256 243 233 229 231 240 234 228 223 224 224 220 217 217 218 219 219 226 222 224 225 223 225 229 231 231 233
34 358 190 211 219 221 222 202 203 247 273 280 304 328 299 283 278 260 250 234 222 225 246 258 246 241 224 220 220 220 221 214 229 227 226 229 225 224 227 230 229 231
38 33 33 35 25 51 154 142 196 237 333 357 343 315 302 293 282 279 267 255 246 219 204 233 242 276 251 232 228 224 225 212 230 243 248 242 236 232 231 230 232 229
21 26 30 26 15 14 21 21 16 11 24 354 346 345 333 316 307 287 269 262 246 226 223 242 227 283 257 241 227 227 218 204 210 218 228 238 243 242 238 238 237 232
19 25 41 41 32 19 21 20 15 359 37 340 338 6 261 263 244 253 288 291 272 239 225 238 228 214 182 163 205 215 189 206 207 216 223 230 237 237 237 237 235 230
12 16 29 23 20 24 14 10 3 348 8 29 41 342 329 325 314 294 261 214 248 271 262 250 244 215 192 174 169 168 177 190 202 208 223 228 238 238 237 240 239 236
14 15 18 15 0 342 356 15 348 350 346 1 32 4 317 305 304 297 298 300 276 261 268 268 274 271 215 217 197 184 179 182 182 192 218 231 234 244 239 238 245 244
17 17 15 13 358 344 333 293 280 313 331 348 31 39 349 308 270 303 315 314 306 278 274 272 279 288 225 218 230 228 218 206 196 182 219 228 227 235 244 243 243 251